Year,Month,Day,Hour,Minute,Value (Times are PST for temperature in C)
2016,07,06,00,00,11.80
2016,07,06,00,01,11.80
2016,07,06,00,02,11.80
2016,07,06,00,03,11.80
2016,07,06,00,04,11.80
2016,07,06,00,05,11.80
2016,07,06,00,06,11.80
2016,07,06,00,07,11.80
2016,07,06,00,08,11.80
2016,07,06,00,09,11.80
2016,07,06,00,10,11.70
2016,07,06,00,11,11.70
2016,07,06,00,12,11.70
2016,07,06,00,13,11.70
2016,07,06,00,14,11.70
2016,07,06,00,15,11.60
2016,07,06,00,16,11.60
2016,07,06,00,17,11.60
2016,07,06,00,18,11.60
2016,07,06,00,19,11.60
2016,07,06,00,20,11.60
2016,07,06,00,21,11.60
2016,07,06,00,22,11.60
2016,07,06,00,23,11.60
2016,07,06,00,24,11.60
2016,07,06,00,25,11.60
2016,07,06,00,26,11.60
2016,07,06,00,27,11.50
2016,07,06,00,28,11.50
2016,07,06,00,29,11.40
2016,07,06,00,30,11.40
2016,07,06,00,31,11.40
2016,07,06,00,32,11.40
2016,07,06,00,33,11.40
2016,07,06,00,34,11.40
2016,07,06,00,35,11.40
2016,07,06,00,36,11.40
2016,07,06,00,37,11.40
2016,07,06,00,38,11.40
2016,07,06,00,39,11.30
2016,07,06,00,40,11.30
2016,07,06,00,41,11.30
2016,07,06,00,42,11.30
2016,07,06,00,43,11.30
2016,07,06,00,44,11.30
2016,07,06,00,45,11.20
2016,07,06,00,46,11.20
2016,07,06,00,47,11.20
2016,07,06,00,48,11.20
2016,07,06,00,49,11.20
2016,07,06,00,50,11.20
2016,07,06,00,51,11.10
2016,07,06,00,52,11.10
2016,07,06,00,53,11.10
2016,07,06,00,54,11.10
2016,07,06,00,55,11.00
2016,07,06,00,56,11.00
2016,07,06,00,57,11.00
2016,07,06,00,58,11.00
2016,07,06,00,59,11.00
2016,07,06,01,00,10.90
2016,07,06,01,01,10.90
2016,07,06,01,02,10.90
2016,07,06,01,03,10.90
2016,07,06,01,04,10.90
2016,07,06,01,05,10.90
2016,07,06,01,06,10.90
2016,07,06,01,07,10.90
2016,07,06,01,08,10.90
2016,07,06,01,09,10.90
2016,07,06,01,10,10.90
2016,07,06,01,11,10.90
2016,07,06,01,12,10.90
2016,07,06,01,13,10.90
2016,07,06,01,14,10.90
2016,07,06,01,15,10.90
2016,07,06,01,16,10.90
2016,07,06,01,17,10.90
2016,07,06,01,18,10.90
2016,07,06,01,19,10.90
2016,07,06,01,20,10.80
2016,07,06,01,21,10.80
2016,07,06,01,22,10.80
2016,07,06,01,23,10.80
2016,07,06,01,24,10.80
2016,07,06,01,25,10.80
2016,07,06,01,26,10.80
2016,07,06,01,27,10.90
2016,07,06,01,28,10.90
2016,07,06,01,29,10.90
2016,07,06,01,30,10.90
2016,07,06,01,31,10.90
2016,07,06,01,32,10.80
2016,07,06,01,33,10.80
2016,07,06,01,34,10.80
2016,07,06,01,35,10.70
2016,07,06,01,36,10.70
2016,07,06,01,37,10.70
2016,07,06,01,38,10.70
2016,07,06,01,39,10.70
2016,07,06,01,40,10.70
2016,07,06,01,41,10.70
2016,07,06,01,42,10.70
2016,07,06,01,43,10.70
2016,07,06,01,44,10.70
2016,07,06,01,45,10.60
2016,07,06,01,46,10.60
2016,07,06,01,47,10.60
2016,07,06,01,48,10.60
2016,07,06,01,49,10.60
2016,07,06,01,50,10.60
2016,07,06,01,51,10.60
2016,07,06,01,52,10.60
2016,07,06,01,53,10.60
2016,07,06,01,54,10.60
2016,07,06,01,55,10.60
2016,07,06,01,56,10.60
2016,07,06,01,57,10.60
2016,07,06,01,58,10.60
2016,07,06,01,59,10.60
2016,07,06,02,00,10.60
2016,07,06,02,01,10.60
2016,07,06,02,02,10.60
2016,07,06,02,03,10.60
2016,07,06,02,04,10.60
2016,07,06,02,05,10.60
2016,07,06,02,06,10.50
2016,07,06,02,07,10.50
2016,07,06,02,08,10.60
2016,07,06,02,09,10.60
2016,07,06,02,10,10.60
2016,07,06,02,11,10.60
2016,07,06,02,12,10.60
2016,07,06,02,13,10.60
2016,07,06,02,14,10.60
2016,07,06,02,15,10.60
2016,07,06,02,16,10.60
2016,07,06,02,17,10.60
2016,07,06,02,18,10.60
2016,07,06,02,19,10.60
2016,07,06,02,20,10.60
2016,07,06,02,21,10.60
2016,07,06,02,22,10.60
2016,07,06,02,23,10.60
2016,07,06,02,24,10.60
2016,07,06,02,25,10.70
2016,07,06,02,26,10.70
2016,07,06,02,27,10.70
2016,07,06,02,28,10.80
2016,07,06,02,29,10.80
2016,07,06,02,30,10.80
2016,07,06,02,31,10.80
2016,07,06,02,32,10.90
2016,07,06,02,33,10.90
2016,07,06,02,34,10.90
2016,07,06,02,35,11.00
2016,07,06,02,36,11.00
2016,07,06,02,37,11.00
2016,07,06,02,38,11.00
2016,07,06,02,39,11.00
2016,07,06,02,40,11.10
2016,07,06,02,41,11.10
2016,07,06,02,42,11.10
2016,07,06,02,43,11.10
2016,07,06,02,44,11.10
2016,07,06,02,45,11.10
2016,07,06,02,46,11.20
2016,07,06,02,47,11.20
2016,07,06,02,48,11.20
2016,07,06,02,49,11.20
2016,07,06,02,50,11.20
2016,07,06,02,51,11.20
2016,07,06,02,52,11.20
2016,07,06,02,53,11.20
2016,07,06,02,54,11.30
2016,07,06,02,55,11.30
2016,07,06,02,56,11.30
2016,07,06,02,57,11.30
2016,07,06,02,58,11.30
2016,07,06,02,59,11.30
2016,07,06,03,00,11.30
2016,07,06,03,01,11.30
2016,07,06,03,02,11.30
2016,07,06,03,03,11.30
2016,07,06,03,04,11.30
2016,07,06,03,05,11.30
2016,07,06,03,06,11.30
2016,07,06,03,07,11.20
2016,07,06,03,08,11.20
2016,07,06,03,09,11.20
2016,07,06,03,10,11.20
2016,07,06,03,11,11.20
2016,07,06,03,12,11.20
2016,07,06,03,13,11.20
2016,07,06,03,14,11.20
2016,07,06,03,15,11.20
2016,07,06,03,16,11.20
2016,07,06,03,17,11.20
2016,07,06,03,18,11.20
2016,07,06,03,19,11.20
2016,07,06,03,20,11.20
2016,07,06,03,21,11.20
2016,07,06,03,22,11.10
2016,07,06,03,23,11.10
2016,07,06,03,24,11.10
2016,07,06,03,25,11.10
2016,07,06,03,26,11.10
2016,07,06,03,27,11.10
2016,07,06,03,28,11.10
2016,07,06,03,29,11.10
2016,07,06,03,30,11.10
2016,07,06,03,31,11.10
2016,07,06,03,32,11.10
2016,07,06,03,33,11.10
2016,07,06,03,34,11.10
2016,07,06,03,35,11.10
2016,07,06,03,36,11.10
2016,07,06,03,37,11.10
2016,07,06,03,38,11.10
2016,07,06,03,39,11.10
2016,07,06,03,40,11.10
2016,07,06,03,41,11.10
2016,07,06,03,42,11.10
2016,07,06,03,43,11.20
2016,07,06,03,44,11.20
2016,07,06,03,45,11.20
2016,07,06,03,46,11.20
2016,07,06,03,47,11.20
2016,07,06,03,48,11.20
2016,07,06,03,49,11.20
2016,07,06,03,50,11.20
2016,07,06,03,51,11.30
2016,07,06,03,52,11.30
2016,07,06,03,53,11.30
2016,07,06,03,54,11.30
2016,07,06,03,55,11.30
2016,07,06,03,56,11.30
2016,07,06,03,57,11.30
2016,07,06,03,58,11.30
2016,07,06,03,59,11.30
2016,07,06,04,00,11.30
2016,07,06,04,01,11.30
2016,07,06,04,02,11.30
2016,07,06,04,03,11.30
2016,07,06,04,04,11.30
2016,07,06,04,05,11.30
2016,07,06,04,06,11.30
2016,07,06,04,07,11.30
2016,07,06,04,08,11.30
2016,07,06,04,09,11.30
2016,07,06,04,10,11.30
2016,07,06,04,11,11.30
2016,07,06,04,12,11.30
2016,07,06,04,13,11.30
2016,07,06,04,14,11.30
2016,07,06,04,15,11.30
2016,07,06,04,16,11.30
2016,07,06,04,17,11.30
2016,07,06,04,18,11.30
2016,07,06,04,19,11.30
2016,07,06,04,20,11.30
2016,07,06,04,21,11.30
2016,07,06,04,22,11.30
2016,07,06,04,23,11.30
2016,07,06,04,24,11.40
2016,07,06,04,25,11.30
2016,07,06,04,26,11.40
2016,07,06,04,27,11.40
2016,07,06,04,28,11.40
2016,07,06,04,29,11.40
2016,07,06,04,30,11.40
2016,07,06,04,31,11.40
2016,07,06,04,32,11.40
2016,07,06,04,33,11.40
2016,07,06,04,34,11.40
2016,07,06,04,35,11.40
2016,07,06,04,36,11.40
2016,07,06,04,37,11.40
2016,07,06,04,38,11.40
2016,07,06,04,39,11.40
2016,07,06,04,40,11.30
2016,07,06,04,41,11.30
2016,07,06,04,42,11.30
2016,07,06,04,43,11.30
2016,07,06,04,44,11.30
2016,07,06,04,45,11.30
2016,07,06,04,46,11.30
2016,07,06,04,47,11.30
2016,07,06,04,48,11.30
2016,07,06,04,49,11.30
2016,07,06,04,50,11.40
2016,07,06,04,51,11.40
2016,07,06,04,52,11.40
2016,07,06,04,53,11.40
2016,07,06,04,54,11.40
2016,07,06,04,55,11.40
2016,07,06,04,56,11.40
2016,07,06,04,57,11.40
2016,07,06,04,58,11.40
2016,07,06,04,59,11.50
2016,07,06,05,00,11.50
2016,07,06,05,01,11.50
2016,07,06,05,02,11.50
2016,07,06,05,03,11.50
2016,07,06,05,04,11.50
2016,07,06,05,05,11.50
2016,07,06,05,06,11.50
2016,07,06,05,07,11.50
2016,07,06,05,08,11.50
2016,07,06,05,09,11.50
2016,07,06,05,10,11.50
2016,07,06,05,11,11.50
2016,07,06,05,12,11.50
2016,07,06,05,13,11.50
2016,07,06,05,14,11.50
2016,07,06,05,15,11.50
2016,07,06,05,16,11.50
2016,07,06,05,17,11.50
2016,07,06,05,18,11.50
2016,07,06,05,19,11.50
2016,07,06,05,20,11.60
2016,07,06,05,21,11.60
2016,07,06,05,22,11.60
2016,07,06,05,23,11.60
2016,07,06,05,24,11.60
2016,07,06,05,25,11.60
2016,07,06,05,26,11.60
2016,07,06,05,27,11.60
2016,07,06,05,28,11.60
2016,07,06,05,29,11.60
2016,07,06,05,30,11.60
2016,07,06,05,31,11.60
2016,07,06,05,32,11.60
2016,07,06,05,33,11.60
2016,07,06,05,34,11.60
2016,07,06,05,35,11.60
2016,07,06,05,36,11.60
2016,07,06,05,37,11.60
2016,07,06,05,38,11.60
2016,07,06,05,39,11.60
2016,07,06,05,40,11.60
2016,07,06,05,41,11.60
2016,07,06,05,42,11.60
2016,07,06,05,43,11.60
2016,07,06,05,44,11.70
2016,07,06,05,45,11.70
2016,07,06,05,46,11.70
2016,07,06,05,47,11.70
2016,07,06,05,48,11.70
2016,07,06,05,49,11.70
2016,07,06,05,50,11.70
2016,07,06,05,51,11.70
2016,07,06,05,52,11.70
2016,07,06,05,53,11.70
2016,07,06,05,54,11.70
2016,07,06,05,55,11.80
2016,07,06,05,56,11.80
2016,07,06,05,57,11.80
2016,07,06,05,58,11.80
2016,07,06,05,59,11.80
2016,07,06,06,00,11.80
2016,07,06,06,01,11.90
2016,07,06,06,02,11.90
2016,07,06,06,03,11.90
2016,07,06,06,04,11.90
2016,07,06,06,05,11.90
2016,07,06,06,06,11.90
2016,07,06,06,07,11.90
2016,07,06,06,08,12.00
2016,07,06,06,09,12.00
2016,07,06,06,10,12.00
2016,07,06,06,11,12.00
2016,07,06,06,12,12.00
2016,07,06,06,13,12.10
2016,07,06,06,14,12.10
2016,07,06,06,15,12.10
2016,07,06,06,16,12.10
2016,07,06,06,17,12.10
2016,07,06,06,18,12.10
2016,07,06,06,19,12.10
2016,07,06,06,20,12.10
2016,07,06,06,21,12.10
2016,07,06,06,22,12.20
2016,07,06,06,23,12.20
2016,07,06,06,24,12.20
2016,07,06,06,25,12.20
2016,07,06,06,26,12.20
2016,07,06,06,27,12.20
2016,07,06,06,28,12.20
2016,07,06,06,29,12.20
2016,07,06,06,30,12.30
2016,07,06,06,31,12.30
2016,07,06,06,32,12.30
2016,07,06,06,33,12.30
2016,07,06,06,34,12.30
2016,07,06,06,35,12.40
2016,07,06,06,36,12.40
2016,07,06,06,37,12.40
2016,07,06,06,38,12.50
2016,07,06,06,39,12.50
2016,07,06,06,40,12.50
2016,07,06,06,41,12.60
2016,07,06,06,42,12.60
2016,07,06,06,43,12.60
2016,07,06,06,44,12.60
2016,07,06,06,45,12.70
2016,07,06,06,46,12.70
2016,07,06,06,47,12.70
2016,07,06,06,48,12.80
2016,07,06,06,49,12.80
2016,07,06,06,50,12.80
2016,07,06,06,51,12.80
2016,07,06,06,52,12.90
2016,07,06,06,53,12.90
2016,07,06,06,54,12.90
2016,07,06,06,55,12.90
2016,07,06,06,56,12.90
2016,07,06,06,57,13.00
2016,07,06,06,58,13.00
2016,07,06,06,59,13.00
2016,07,06,07,00,13.10
2016,07,06,07,01,13.10
2016,07,06,07,02,13.10
2016,07,06,07,03,13.10
2016,07,06,07,04,13.10
2016,07,06,07,05,13.20
2016,07,06,07,06,13.20
2016,07,06,07,07,13.20
2016,07,06,07,08,13.20
2016,07,06,07,09,13.30
2016,07,06,07,10,13.30
2016,07,06,07,11,13.30
2016,07,06,07,12,13.30
2016,07,06,07,13,13.30
2016,07,06,07,14,13.30
2016,07,06,07,15,13.30
2016,07,06,07,16,13.30
2016,07,06,07,17,13.40
2016,07,06,07,18,13.40
2016,07,06,07,19,13.40
2016,07,06,07,20,13.40
2016,07,06,07,21,13.40
2016,07,06,07,22,13.50
2016,07,06,07,23,13.50
2016,07,06,07,24,13.50
2016,07,06,07,25,13.60
2016,07,06,07,26,13.60
2016,07,06,07,27,13.60
2016,07,06,07,28,13.60
2016,07,06,07,29,13.70
2016,07,06,07,30,13.70
2016,07,06,07,31,13.70
2016,07,06,07,32,13.70
2016,07,06,07,33,13.70
2016,07,06,07,34,13.80
2016,07,06,07,35,13.80
2016,07,06,07,36,13.80
2016,07,06,07,37,13.80
2016,07,06,07,38,13.80
2016,07,06,07,39,13.80
2016,07,06,07,40,13.80
2016,07,06,07,41,13.90
2016,07,06,07,42,13.90
2016,07,06,07,43,13.90
2016,07,06,07,44,13.90
2016,07,06,07,45,14.00
2016,07,06,07,46,14.00
2016,07,06,07,47,14.00
2016,07,06,07,48,14.10
2016,07,06,07,49,14.10
2016,07,06,07,50,14.10
2016,07,06,07,51,14.20
2016,07,06,07,52,14.20
2016,07,06,07,53,14.20
2016,07,06,07,54,14.20
2016,07,06,07,55,14.20
2016,07,06,07,56,14.30
2016,07,06,07,57,14.30
2016,07,06,07,58,14.30
2016,07,06,07,59,14.30
2016,07,06,08,00,14.30
2016,07,06,08,01,14.30
2016,07,06,08,02,14.30
2016,07,06,08,03,14.30
2016,07,06,08,04,14.30
2016,07,06,08,05,14.20
2016,07,06,08,06,14.20
2016,07,06,08,07,14.20
2016,07,06,08,08,14.20
2016,07,06,08,09,14.10
2016,07,06,08,10,14.10
2016,07,06,08,11,14.00
2016,07,06,08,12,13.90
2016,07,06,08,13,13.90
2016,07,06,08,14,13.90
2016,07,06,08,15,13.80
2016,07,06,08,16,13.80
2016,07,06,08,17,13.80
2016,07,06,08,18,13.80
2016,07,06,08,19,13.70
2016,07,06,08,20,13.70
2016,07,06,08,21,13.70
2016,07,06,08,22,13.70
2016,07,06,08,23,13.70
2016,07,06,08,24,13.70
2016,07,06,08,25,13.70
2016,07,06,08,26,13.80
2016,07,06,08,27,13.80
2016,07,06,08,28,13.80
2016,07,06,08,29,13.80
2016,07,06,08,30,13.80
2016,07,06,08,31,13.80
2016,07,06,08,32,13.90
2016,07,06,08,33,13.90
2016,07,06,08,34,13.90
2016,07,06,08,35,13.90
2016,07,06,08,36,13.90
2016,07,06,08,37,13.90
2016,07,06,08,38,13.90
2016,07,06,08,39,13.90
2016,07,06,08,40,14.00
2016,07,06,08,41,14.00
2016,07,06,08,42,14.00
2016,07,06,08,43,14.10
2016,07,06,08,44,14.10
2016,07,06,08,45,14.10
2016,07,06,08,46,14.00
2016,07,06,08,47,14.00
2016,07,06,08,48,14.00
2016,07,06,08,49,14.00
2016,07,06,08,50,14.00
2016,07,06,08,51,14.00
2016,07,06,08,52,13.90
2016,07,06,08,53,13.90
2016,07,06,08,54,13.90
2016,07,06,08,55,13.90
2016,07,06,08,56,13.90
2016,07,06,08,57,13.80
2016,07,06,08,58,13.80
2016,07,06,08,59,13.80
2016,07,06,09,00,13.80
2016,07,06,09,01,13.80
2016,07,06,09,02,13.80
2016,07,06,09,03,13.80
2016,07,06,09,04,13.80
2016,07,06,09,05,13.80
2016,07,06,09,06,13.80
2016,07,06,09,07,13.80
2016,07,06,09,08,13.80
2016,07,06,09,09,13.90
2016,07,06,09,10,13.90
2016,07,06,09,11,13.90
2016,07,06,09,12,13.90
2016,07,06,09,13,13.90
2016,07,06,09,14,13.90
2016,07,06,09,15,13.90
2016,07,06,09,16,13.90
2016,07,06,09,17,13.90
2016,07,06,09,18,14.00
2016,07,06,09,19,14.00
2016,07,06,09,20,14.00
2016,07,06,09,21,14.00
2016,07,06,09,22,14.10
2016,07,06,09,23,14.10
2016,07,06,09,24,14.10
2016,07,06,09,25,14.20
2016,07,06,09,26,14.20
2016,07,06,09,27,14.30
2016,07,06,09,28,14.30
2016,07,06,09,29,14.30
2016,07,06,09,30,14.40
2016,07,06,09,31,14.40
2016,07,06,09,32,14.50
2016,07,06,09,33,14.50
2016,07,06,09,34,14.50
2016,07,06,09,35,14.60
2016,07,06,09,36,14.60
2016,07,06,09,37,14.60
2016,07,06,09,38,14.70
2016,07,06,09,39,14.70
2016,07,06,09,40,14.70
2016,07,06,09,41,14.80
2016,07,06,09,42,14.80
2016,07,06,09,43,14.90
2016,07,06,09,44,15.00
2016,07,06,09,45,15.00
2016,07,06,09,46,15.10
2016,07,06,09,47,15.20
2016,07,06,09,48,15.30
2016,07,06,09,49,15.40
2016,07,06,09,50,15.50
2016,07,06,09,51,15.50
2016,07,06,09,52,15.60
2016,07,06,09,53,15.70
2016,07,06,09,54,15.80
2016,07,06,09,55,15.80
2016,07,06,09,56,15.90
2016,07,06,09,57,16.00
2016,07,06,09,58,16.10
2016,07,06,09,59,16.10
2016,07,06,10,00,16.20
2016,07,06,10,01,16.30
2016,07,06,10,02,16.30
2016,07,06,10,03,16.40
2016,07,06,10,04,16.40
2016,07,06,10,05,16.50
2016,07,06,10,06,16.50
2016,07,06,10,07,16.50
2016,07,06,10,08,16.50
2016,07,06,10,09,16.60
2016,07,06,10,10,16.60
2016,07,06,10,11,16.70
2016,07,06,10,12,16.70
2016,07,06,10,13,16.80
2016,07,06,10,14,16.80
2016,07,06,10,15,16.90
2016,07,06,10,16,17.00
2016,07,06,10,17,17.00
2016,07,06,10,18,17.10
2016,07,06,10,19,17.20
2016,07,06,10,20,17.20
2016,07,06,10,21,17.30
2016,07,06,10,22,17.30
2016,07,06,10,23,17.40
2016,07,06,10,24,17.40
2016,07,06,10,25,17.40
2016,07,06,10,26,17.30
2016,07,06,10,27,17.40
2016,07,06,10,28,17.40
2016,07,06,10,29,17.50
2016,07,06,10,30,17.50
2016,07,06,10,31,17.50
2016,07,06,10,32,17.50
2016,07,06,10,33,17.40
2016,07,06,10,34,17.40
2016,07,06,10,35,17.30
2016,07,06,10,36,17.20
2016,07,06,10,37,17.10
2016,07,06,10,38,17.00
2016,07,06,10,39,16.90
2016,07,06,10,40,16.70
2016,07,06,10,41,16.60
2016,07,06,10,42,16.50
2016,07,06,10,43,16.50
2016,07,06,10,44,16.50
2016,07,06,10,45,16.40
2016,07,06,10,46,16.40
2016,07,06,10,47,16.40
2016,07,06,10,48,16.40
2016,07,06,10,49,16.40
2016,07,06,10,50,16.40
2016,07,06,10,51,16.40
2016,07,06,10,52,16.40
2016,07,06,10,53,16.40
2016,07,06,10,54,16.40
2016,07,06,10,55,16.30
2016,07,06,10,56,16.30
2016,07,06,10,57,16.40
2016,07,06,10,58,16.40
2016,07,06,10,59,16.30
2016,07,06,11,00,16.30
2016,07,06,11,01,16.40
2016,07,06,11,02,16.40
2016,07,06,11,03,16.50
2016,07,06,11,04,16.50
2016,07,06,11,05,16.60
2016,07,06,11,06,16.70
2016,07,06,11,07,16.80
2016,07,06,11,08,16.80
2016,07,06,11,09,16.90
2016,07,06,11,10,16.90
2016,07,06,11,11,16.90
2016,07,06,11,12,17.00
2016,07,06,11,13,17.00
2016,07,06,11,14,17.10
2016,07,06,11,15,17.20
2016,07,06,11,16,17.20
2016,07,06,11,17,17.30
2016,07,06,11,18,17.30
2016,07,06,11,19,17.30
2016,07,06,11,20,17.30
2016,07,06,11,21,17.20
2016,07,06,11,22,17.20
2016,07,06,11,23,17.20
2016,07,06,11,24,17.20
2016,07,06,11,25,17.20
2016,07,06,11,26,17.20
2016,07,06,11,27,17.20
2016,07,06,11,28,17.20
2016,07,06,11,29,17.20
2016,07,06,11,30,17.20
2016,07,06,11,31,17.20
2016,07,06,11,32,17.30
2016,07,06,11,33,17.30
2016,07,06,11,34,17.30
2016,07,06,11,35,17.40
2016,07,06,11,36,17.40
2016,07,06,11,37,17.40
2016,07,06,11,38,17.50
2016,07,06,11,39,17.50
2016,07,06,11,40,17.60
2016,07,06,11,41,17.60
2016,07,06,11,42,17.70
2016,07,06,11,43,17.70
2016,07,06,11,44,17.70
2016,07,06,11,45,17.80
2016,07,06,11,46,17.80
2016,07,06,11,47,17.90
2016,07,06,11,48,18.00
2016,07,06,11,49,18.20
2016,07,06,11,50,18.30
2016,07,06,11,51,18.40
2016,07,06,11,52,18.50
2016,07,06,11,53,18.60
2016,07,06,11,54,18.80
2016,07,06,11,55,18.90
2016,07,06,11,56,19.10
2016,07,06,11,57,19.20
2016,07,06,11,58,19.30
2016,07,06,11,59,19.40
2016,07,06,12,00,19.60
2016,07,06,12,01,19.70
2016,07,06,12,02,19.80
2016,07,06,12,03,19.90
2016,07,06,12,04,19.90
2016,07,06,12,05,20.00
2016,07,06,12,06,19.90
2016,07,06,12,07,19.90
2016,07,06,12,08,19.80
2016,07,06,12,09,19.80
2016,07,06,12,10,19.80
2016,07,06,12,11,19.70
2016,07,06,12,12,19.60
2016,07,06,12,13,19.50
2016,07,06,12,14,19.30
2016,07,06,12,15,19.30
2016,07,06,12,16,19.20
2016,07,06,12,17,19.10
2016,07,06,12,18,19.00
2016,07,06,12,19,19.00
2016,07,06,12,20,19.00
2016,07,06,12,21,18.90
2016,07,06,12,22,18.90
2016,07,06,12,23,18.80
2016,07,06,12,24,18.70
2016,07,06,12,25,18.70
2016,07,06,12,26,18.60
2016,07,06,12,27,18.60
2016,07,06,12,28,18.50
2016,07,06,12,29,18.50
2016,07,06,12,30,18.50
2016,07,06,12,31,18.50
2016,07,06,12,32,18.60
2016,07,06,12,33,18.60
2016,07,06,12,34,18.70
2016,07,06,12,35,18.70
2016,07,06,12,36,18.80
2016,07,06,12,37,18.90
2016,07,06,12,38,18.90
2016,07,06,12,39,18.90
2016,07,06,12,40,19.00
2016,07,06,12,41,19.00
2016,07,06,12,42,19.10
2016,07,06,12,43,19.30
2016,07,06,12,44,19.40
2016,07,06,12,45,19.40
2016,07,06,12,46,19.60
2016,07,06,12,47,19.70
2016,07,06,12,48,19.70
2016,07,06,12,49,19.70
2016,07,06,12,50,19.70
2016,07,06,12,51,19.70
2016,07,06,12,52,19.70
2016,07,06,12,53,19.70
2016,07,06,12,54,19.70
2016,07,06,12,55,19.70
2016,07,06,12,56,19.70
2016,07,06,12,57,19.70
2016,07,06,12,58,19.70
2016,07,06,12,59,19.80
2016,07,06,13,00,20.00
2016,07,06,13,01,20.10
2016,07,06,13,02,20.20
2016,07,06,13,03,20.30
2016,07,06,13,04,20.30
2016,07,06,13,05,20.40
2016,07,06,13,06,20.40
2016,07,06,13,07,20.50
2016,07,06,13,08,20.50
2016,07,06,13,09,20.60
2016,07,06,13,10,20.70
2016,07,06,13,11,20.70
2016,07,06,13,12,20.70
2016,07,06,13,13,20.70
2016,07,06,13,14,20.60
2016,07,06,13,15,20.50
2016,07,06,13,16,20.40
2016,07,06,13,17,20.20
2016,07,06,13,18,20.00
2016,07,06,13,19,19.90
2016,07,06,13,20,19.70
2016,07,06,13,21,19.60
2016,07,06,13,22,19.60
2016,07,06,13,23,19.50
2016,07,06,13,24,19.40
2016,07,06,13,25,19.40
2016,07,06,13,26,19.30
2016,07,06,13,27,19.30
2016,07,06,13,28,19.20
2016,07,06,13,29,19.20
2016,07,06,13,30,19.20
2016,07,06,13,31,19.30
2016,07,06,13,32,19.30
2016,07,06,13,33,19.40
2016,07,06,13,34,19.40
2016,07,06,13,35,19.50
2016,07,06,13,36,19.70
2016,07,06,13,37,19.80
2016,07,06,13,38,20.00
2016,07,06,13,39,20.20
2016,07,06,13,40,20.50
2016,07,06,13,41,20.70
2016,07,06,13,42,20.90
2016,07,06,13,43,21.10
2016,07,06,13,44,21.30
2016,07,06,13,45,21.30
2016,07,06,13,46,21.30
2016,07,06,13,47,21.30
2016,07,06,13,48,21.30
2016,07,06,13,49,21.30
2016,07,06,13,50,21.30
2016,07,06,13,51,21.40
2016,07,06,13,52,21.40
2016,07,06,13,53,21.50
2016,07,06,13,54,21.50
2016,07,06,13,55,21.50
2016,07,06,13,56,21.60
2016,07,06,13,57,21.70
2016,07,06,13,58,21.80
2016,07,06,13,59,21.90
2016,07,06,14,00,21.90
2016,07,06,14,01,21.90
2016,07,06,14,02,21.90
2016,07,06,14,03,21.90
2016,07,06,14,04,21.90
2016,07,06,14,05,21.80
2016,07,06,14,06,21.80
2016,07,06,14,07,21.80
2016,07,06,14,08,21.80
2016,07,06,14,09,21.80
2016,07,06,14,10,21.80
2016,07,06,14,11,21.90
2016,07,06,14,12,22.10
2016,07,06,14,13,22.20
2016,07,06,14,14,22.20
2016,07,06,14,15,22.30
2016,07,06,14,16,22.40
2016,07,06,14,17,22.50
2016,07,06,14,18,22.60
2016,07,06,14,19,22.70
2016,07,06,14,20,22.80
2016,07,06,14,21,22.80
2016,07,06,14,22,22.90
2016,07,06,14,23,22.90
2016,07,06,14,24,22.90
2016,07,06,14,25,22.90
2016,07,06,14,26,22.90
2016,07,06,14,27,22.80
2016,07,06,14,28,22.60
2016,07,06,14,29,22.50
2016,07,06,14,30,22.20
2016,07,06,14,31,21.90
2016,07,06,14,32,21.70
2016,07,06,14,33,21.50
2016,07,06,14,34,21.40
2016,07,06,14,35,21.30
2016,07,06,14,36,21.30
2016,07,06,14,37,21.30
2016,07,06,14,38,21.40
2016,07,06,14,39,21.50
2016,07,06,14,40,21.50
2016,07,06,14,41,21.50
2016,07,06,14,42,21.70
2016,07,06,14,43,21.80
2016,07,06,14,44,21.80
2016,07,06,14,45,21.90
2016,07,06,14,46,22.10
2016,07,06,14,47,22.20
2016,07,06,14,48,22.20
2016,07,06,14,49,22.20
2016,07,06,14,50,22.30
2016,07,06,14,51,22.20
2016,07,06,14,52,22.20
2016,07,06,14,53,22.10
2016,07,06,14,54,21.90
2016,07,06,14,55,21.70
2016,07,06,14,56,21.70
2016,07,06,14,57,21.50
2016,07,06,14,58,21.40
2016,07,06,14,59,21.20
2016,07,06,15,00,21.00
2016,07,06,15,01,20.90
2016,07,06,15,02,20.80
2016,07,06,15,03,20.80
2016,07,06,15,04,20.80
2016,07,06,15,05,20.80
2016,07,06,15,06,20.80
2016,07,06,15,07,20.70
2016,07,06,15,08,20.70
2016,07,06,15,09,20.70
2016,07,06,15,10,20.70
2016,07,06,15,11,20.70
2016,07,06,15,12,20.80
2016,07,06,15,13,20.90
2016,07,06,15,14,21.00
2016,07,06,15,15,21.10
2016,07,06,15,16,21.20
2016,07,06,15,17,21.20
2016,07,06,15,18,21.20
2016,07,06,15,19,21.20
2016,07,06,15,20,21.10
2016,07,06,15,21,21.10
2016,07,06,15,22,21.00
2016,07,06,15,23,21.00
2016,07,06,15,24,20.90
2016,07,06,15,25,21.00
2016,07,06,15,26,21.10
2016,07,06,15,27,21.10
2016,07,06,15,28,21.10
2016,07,06,15,29,21.10
2016,07,06,15,30,21.10
2016,07,06,15,31,21.00
2016,07,06,15,32,20.90
2016,07,06,15,33,20.80
2016,07,06,15,34,20.80
2016,07,06,15,35,20.70
2016,07,06,15,36,20.60
2016,07,06,15,37,20.50
2016,07,06,15,38,20.50
2016,07,06,15,39,20.50
2016,07,06,15,40,20.40
2016,07,06,15,41,20.40
2016,07,06,15,42,20.50
2016,07,06,15,43,20.60
2016,07,06,15,44,20.70
2016,07,06,15,45,20.80
2016,07,06,15,46,21.00
2016,07,06,15,47,21.20
2016,07,06,15,48,21.30
2016,07,06,15,49,21.50
2016,07,06,15,50,21.80
2016,07,06,15,51,22.00
2016,07,06,15,52,22.20
2016,07,06,15,53,22.40
2016,07,06,15,54,22.50
2016,07,06,15,55,22.70
2016,07,06,15,56,22.70
2016,07,06,15,57,22.80
2016,07,06,15,58,22.80
2016,07,06,15,59,22.90
2016,07,06,16,00,22.80
2016,07,06,16,01,22.80
2016,07,06,16,02,22.60
2016,07,06,16,03,22.40
2016,07,06,16,04,22.30
2016,07,06,16,05,22.00
2016,07,06,16,06,21.80
2016,07,06,16,07,21.70
2016,07,06,16,08,21.60
2016,07,06,16,09,21.60
2016,07,06,16,10,21.60
2016,07,06,16,11,21.60
2016,07,06,16,12,21.70
2016,07,06,16,13,21.70
2016,07,06,16,14,21.80
2016,07,06,16,15,21.80
2016,07,06,16,16,21.80
2016,07,06,16,17,21.80
2016,07,06,16,18,21.70
2016,07,06,16,19,21.70
2016,07,06,16,20,21.70
2016,07,06,16,21,21.80
2016,07,06,16,22,21.80
2016,07,06,16,23,21.90
2016,07,06,16,24,21.90
2016,07,06,16,25,22.00
2016,07,06,16,26,22.10
2016,07,06,16,27,22.10
2016,07,06,16,28,22.10
2016,07,06,16,29,22.00
2016,07,06,16,30,21.90
2016,07,06,16,31,21.80
2016,07,06,16,32,21.70
2016,07,06,16,33,21.70
2016,07,06,16,34,21.70
2016,07,06,16,35,21.70
2016,07,06,16,36,21.80
2016,07,06,16,37,21.80
2016,07,06,16,38,21.90
2016,07,06,16,39,21.90
2016,07,06,16,40,21.90
2016,07,06,16,41,21.90
2016,07,06,16,42,21.90
2016,07,06,16,43,21.90
2016,07,06,16,44,22.00
2016,07,06,16,45,22.20
2016,07,06,16,46,22.30
2016,07,06,16,47,22.30
2016,07,06,16,48,22.30
2016,07,06,16,49,22.30
2016,07,06,16,50,22.30
2016,07,06,16,51,22.30
2016,07,06,16,52,22.30
2016,07,06,16,53,22.30
2016,07,06,16,54,22.30
2016,07,06,16,55,22.40
2016,07,06,16,56,22.50
2016,07,06,16,57,22.60
2016,07,06,16,58,22.70
2016,07,06,16,59,22.80
2016,07,06,17,00,22.90
2016,07,06,17,01,22.90
2016,07,06,17,02,22.80
2016,07,06,17,03,22.70
2016,07,06,17,04,22.60
2016,07,06,17,05,22.60
2016,07,06,17,06,22.50
2016,07,06,17,07,22.50
2016,07,06,17,08,22.40
2016,07,06,17,09,22.30
2016,07,06,17,10,22.40
2016,07,06,17,11,22.40
2016,07,06,17,12,22.40
2016,07,06,17,13,22.30
2016,07,06,17,14,22.20
2016,07,06,17,15,22.20
2016,07,06,17,16,22.30
2016,07,06,17,17,22.40
2016,07,06,17,18,22.40
2016,07,06,17,19,22.50